Chillicothe, MO

10:26 AM CDT on August 19, 2017 (GMT -0500)
Chillicothe

Weather History for KCDJ - May, 2013

Change the Weather History Date:

Friday, May 10, 2013

  Actual Average (KIRK) Record (KIRK)
Temperature  
Mean Temperature 59 °F -  
Max Temperature 66 °F 71 °F 91 °F (2011)
Min Temperature 51 °F 48 °F 29 °F (1966)
Degree Days  
Heating Degree Days 6    
Growing Degree Days 9 (Base 50)    
Moisture  
Dew Point 51 °F    
Average Humidity 77    
Maximum Humidity 90    
Minimum Humidity 54    
Precipitation  
Precipitation 0.00 in - - ()
Sea Level Pressure  
Sea Level Pressure 29.99 in    
Wind  
Wind Speed 4 mph (North)    
Max Wind Speed 8 mph    
Max Gust Speed 17 mph    
Averages and records for this station are not official NWS values.
T = Trace of Precipitation, MM = Missing Value Source: NWS Daily Summary

Daily Weather History Graph

Daily Weather History Graph

Search for Another Location

Airport or City:

Trip Planner

Search our weather history database for the weather conditions in past years. The results will help you decide how hot, cold, wet, or windy it might be!

Date:

Astronomy

May. 10, 2013 Rise Set
Actual Time 6:04 AM CDT 8:17 PM CDT
Civil Twilight 5:34 AM CDT 8:48 PM CDT
Nautical Twilight 4:57 AM CDT 9:25 PM CDT
Astronomical Twilight 4:16 AM CDT 10:05 PM CDT
Moon 6:28 AM CDT (5/10) 9:07 PM CDT (5/10)
Length of Visible Light 15h 13m
Length of Day
14h 13m
New Moon, 0% of the Moon is Illuminated
May 10
New Moon
May 17
First Quarter
May 24
Full
May 31
Last Quarter
Jun 8
New

Hourly Weather History & Observations

Time (CDT) Temp. Dew Point Humidity Pressure Visibility Wind Dir Wind Speed Gust Speed Precip Events Conditions
12:52 AM 57.9 °F 55.0 °F 90% 29.91 in - Calm Calm - N/A   Unknown
1:52 AM 59.0 °F 55.0 °F 87% 29.90 in - NNW 4.6 mph - N/A   Unknown
2:52 AM 59.0 °F 55.0 °F 87% 29.90 in - Variable 4.6 mph - N/A   Unknown
3:52 AM 59.0 °F 54.0 °F 83% 29.90 in - NNW 6.9 mph - N/A   Unknown
4:52 AM 57.9 °F 54.0 °F 87% 29.92 in - Variable 4.6 mph - N/A   Unknown
5:52 AM 57.0 °F 53.1 °F 87% 29.93 in - Variable 6.9 mph - N/A   Unknown
6:52 AM 55.9 °F 51.1 °F 84% 29.95 in - NNW 6.9 mph - N/A   Unknown
7:52 AM 55.0 °F 50.0 °F 83% 29.97 in - North 8.1 mph 16.1 mph N/A   Unknown
8:52 AM 55.0 °F 50.0 °F 83% 29.98 in - North 6.9 mph - N/A   Unknown
9:52 AM 55.0 °F 50.0 °F 83% 29.99 in - NNW 5.8 mph - N/A   Unknown
10:52 AM 57.0 °F 50.0 °F 77% 30.01 in - NNW 6.9 mph - N/A   Unknown
11:52 AM 57.9 °F 50.0 °F 75% 30.04 in - Variable 4.6 mph - N/A   Unknown
12:52 PM 60.1 °F 48.9 °F 67% 30.03 in - NNW 8.1 mph - N/A   Unknown
1:52 PM 60.1 °F 48.9 °F 67% 30.03 in - Variable 4.6 mph - N/A   Unknown
2:52 PM 62.1 °F 50.0 °F 65% 30.02 in - North 8.1 mph - N/A   Unknown
3:52 PM 63.0 °F 48.9 °F 60% 30.01 in - North 6.9 mph 17.3 mph N/A   Unknown
4:52 PM 64.0 °F 50.0 °F 60% 30.01 in - North 8.1 mph - N/A   Unknown
5:52 PM 64.9 °F 50.0 °F 58% 30.00 in - North 5.8 mph - N/A   Unknown
6:52 PM 66.0 °F 48.9 °F 54% 30.00 in - East 4.6 mph - N/A   Unknown
7:52 PM 63.0 °F 50.0 °F 63% 30.00 in - ENE 3.5 mph - N/A   Unknown
8:52 PM 57.0 °F 51.1 °F 81% 30.01 in - Calm Calm - N/A   Unknown
9:52 PM 54.0 °F 50.0 °F 86% 30.04 in - Calm Calm - N/A   Unknown
10:52 PM 52.0 °F 48.0 °F 86% 30.05 in - Calm Calm - N/A   Unknown
11:52 PM 51.1 °F 48.0 °F 89% 30.06 in - South 3.5 mph - N/A   Unknown